Eau Claire, WI

5:58 PM CDT on May 23, 2017 (GMT -0500)
Chippewa Valley Regional

Weather History for KEAU - October, 2014

Change the Weather History Date:

Wednesday, October 15, 2014

  Actual Average Record
Temperature  
Mean Temperature 53 °F 48 °F  
Max Temperature 67 °F 59 °F 86 °F (1947)
Min Temperature 38 °F 37 °F 21 °F (1937)
Degree Days  
Heating Degree Days 12 17  
Month to date heating degree days 273 222  
Since 1 July heating degree days 483 455  
Cooling Degree Days 0 0  
Month to date cooling degree days 0 4  
Year to date cooling degree days 500 579  
Growing Degree Days 4 (Base 50)    
Moisture  
Dew Point 36 °F    
Average Humidity 61    
Maximum Humidity 92    
Minimum Humidity 29    
Precipitation  
Precipitation 0.00 in 0.07 in 1.58 in (1897)
Month to date precipitation 2.07 1.30  
Year to date precipitation 40.20 27.10  
Snow  
Snow 0.00 in 0.00 in 0.50 in (2009)
Month to date snowfall 0.6 0.1  
Since 1 July snowfall 0.6 0.1  
Since 1 September snowfall 0.6 0.1  
Snow Depth 0.00 in    
Sea Level Pressure  
Sea Level Pressure 29.92 in    
Wind  
Wind Speed 8 mph (North)    
Max Wind Speed 18 mph    
Max Gust Speed 24 mph    
Visibility 10 miles    
Events      
T = Trace of Precipitation, MM = Missing Value Source: NWS Daily Summary

Daily Weather History Graph

Daily Weather History Graph

Search for Another Location

Airport or City:

Trip Planner

Search our weather history database for the weather conditions in past years. The results will help you decide how hot, cold, wet, or windy it might be!

Date:

Astronomy

Oct. 15, 2014 Rise Set
Actual Time 7:21 AM CDT 6:21 PM CDT
Civil Twilight 6:52 AM CDT 6:50 PM CDT
Nautical Twilight 6:18 AM CDT 7:24 PM CDT
Astronomical Twilight 5:44 AM CDT 7:58 PM CDT
Moon No Moon Rise 2:09 PM CDT (10/15)
Length of Visible Light 11h 58m
Length of Day
10h 59m
Waning Gibbous, 51% of the Moon is Illuminated
Oct 15
Waning Gibbous
Oct 15
Last Quarter
Oct 23
New
Oct 30
First Quarter
Nov 6
Full

Hourly Weather History & Observations

Time (CDT) Temp. Windchill Dew Point Humidity Pressure Visibility Wind Dir Wind Speed Gust Speed Precip Events Conditions
12:56 AM 46.9 °F - 35.1 °F 63% 29.92 in 10.0 mi North 6.9 mph - N/A   Clear
1:56 AM 46.9 °F - 36.0 °F 66% 29.93 in 10.0 mi North 9.2 mph - N/A   Clear
2:56 AM 46.0 °F 41.0 °F 37.0 °F 71% 29.93 in 10.0 mi North 10.4 mph - N/A   Clear
3:56 AM 45.0 °F 40.1 °F 37.9 °F 76% 29.92 in 10.0 mi North 9.2 mph - N/A   Clear
4:56 AM 45.0 °F 40.1 °F 37.9 °F 76% 29.94 in 10.0 mi North 9.2 mph - N/A   Clear
5:56 AM 44.1 °F 39.5 °F 37.0 °F 76% 29.95 in 10.0 mi North 8.1 mph - N/A   Clear
6:56 AM 43.0 °F 38.2 °F 37.0 °F 80% 29.96 in 10.0 mi North 8.1 mph - N/A   Clear
7:56 AM 45.0 °F 39.7 °F 37.0 °F 74% 29.96 in 10.0 mi North 10.4 mph - N/A   Clear
8:56 AM 48.0 °F - 37.9 °F 68% 29.96 in 10.0 mi North 10.4 mph - N/A   Clear
9:56 AM 53.1 °F - 37.9 °F 57% 29.94 in 10.0 mi NNE 11.5 mph - N/A   Clear
10:56 AM 57.0 °F - 37.0 °F 47% 29.94 in 10.0 mi North 13.8 mph - N/A   Clear
11:56 AM 60.1 °F - 37.0 °F 42% 29.94 in 10.0 mi North 8.1 mph - N/A   Clear
12:56 PM 61.0 °F - 37.9 °F 42% 29.94 in 10.0 mi North 10.4 mph - N/A   Clear
1:56 PM 64.0 °F - 37.0 °F 37% 29.91 in 10.0 mi North 11.5 mph - N/A   Clear
2:56 PM 66.0 °F - 35.1 °F 32% 29.90 in 10.0 mi North 10.4 mph - N/A   Clear
3:56 PM 66.0 °F - 34.0 °F 30% 29.89 in 10.0 mi North 10.4 mph - N/A   Clear
4:56 PM 66.0 °F - 33.1 °F 29% 29.88 in 10.0 mi North 8.1 mph - N/A   Clear
5:56 PM 63.0 °F - 33.1 °F 33% 29.90 in 10.0 mi NNE 4.6 mph - N/A   Clear
6:56 PM 57.0 °F - 35.1 °F 44% 29.91 in 10.0 mi NNW 4.6 mph - N/A   Clear
7:56 PM 48.9 °F - 36.0 °F 61% 29.91 in 10.0 mi NNW 4.6 mph - N/A   Clear
8:56 PM 46.0 °F 42.5 °F 36.0 °F 68% 29.91 in 10.0 mi NNE 6.9 mph - N/A   Clear
9:56 PM 44.1 °F 42.5 °F 36.0 °F 73% 29.90 in 10.0 mi NNE 3.5 mph - N/A   Clear
10:56 PM 42.1 °F - 37.0 °F 82% 29.90 in 10.0 mi Calm Calm - N/A   Clear
11:56 PM 39.9 °F 36.7 °F 37.0 °F 89% 29.88 in 10.0 mi NE 4.6 mph - N/A   Clear